Location: Newark
(34.3481°N, 134.0494°E)
Time: 03:19:45
(UTC+00:00)

Vanguard 3 - Pass Details

Date: 27 January 2020
Orbit: 508 x 3263 km, 33.3° (Epoch: 16 February)

Event Time Altitude Azimuth Distance (km) Brightness Sun altitude
Rises 09:26:42 0° 259° (W) 7,006 14.0 -12.4°
Reaches altitude 10° 09:31:11 10° 260° (W) 6,121 13.1 -13.3°
Maximum altitude 09:51:32 86° 174° (S) 3,039 9.9 -17.4°
Enters shadow 10:03:09 25° 88° (E) 4,057 10.0 -19.7°
Drops below altitude 10° 10:06:55 10° 88° (E) 4,824 - -20.5°
Sets 10:10:00 0° 88° (E) 5,527 - -21.1°
